National Weather Service Raw Text Product

Displaying AFOS PIL: RWRIA Received: 2018-02-14 04:00 UTC


489 
ASUS43 KDMX 140406
RWRIA 

WEATHER ROUNDUP FOR IOWA
NATIONAL WEATHER SERVICE DES MOINES IA
1000 PM CST TUE FEB 13 2018

NOTE: "FAIR" INDICATES FEW OR NO CLOUDS BELOW 12,000 FEET WITH NO
SIGNIFICANT WEATHER AND/OR OBSTRUCTIONS TO VISIBILITY.

* - THESE STATIONS ARE NOT NWS STATIONS...THUS NOT UNDER NWS
QUALITY CONTROL.  THEY ALSO DO NOT REPORT WEATHER SUCH 
AS PRECIPITATION OR FOG.  

IAZ001>003-012>014-020>022-031>034-043>046-140500-
   NORTHWEST IOWA
  
CITY           SKY/WX    TMP DP  RH WIND       PRES   REMARKS
CARROLL *      CLOUDY    23  21  93 S6        30.11F WCI  16          
CHEROKEE *     CLOUDY    26  23  89 S8        30.08F WCI  17          
DENISON *      CLEAR     28  25  86 CALM      30.13S                  
LE MARS *      CLOUDY    25  21  86 S9        30.07F WCI  15          
ORANGE CITY *  CLEAR     19  18  93 SW5       30.05F FOG     WCI  13  
SHELDON *      CLOUDY    21  21 100 S7        30.04F WCI  13          
SIOUX CITY     CLOUDY    31  23  72 S9        30.10F WCI  23          
SPENCER        CLOUDY    22  19  89 SW13      30.06F WCI  10          
STORM LAKE *   CLOUDY    25  23  93 SW13      30.07F WCI  13          
$$
 
IAZ055>058-069>071-079>083-090>094-140500-
   SOUTHWEST IOWA
  
CITY           SKY/WX    TMP DP  RH WIND       PRES   REMARKS
ATLANTIC *     CLOUDY    23  23 100 CALM      30.14F                  
AUDUBON *      CLOUDY    27  21  80 CALM      30.13F                  
CLARINDA *     CLEAR     34  28  80 SW7       30.19F WCI  28          
COUNCIL BLFS * CLEAR     34  32  93 S6        30.14S WCI  29          
CRESTON *      CLEAR     34  25  69 S14       30.16F WCI  24          
HARLAN  *      PTCLDY    25  25 100 S5        30.17F WCI  19          
LAMONI         CLEAR     36  24  62 S12       30.18S WCI  28          
RED OAK *      CLOUDY    27  25  93 S6        30.16S WCI  20          
SHENANDOAH *   CLEAR     37  28  70 S9        30.16F WCI  31          
$$
 
IAZ047>049-059>061-072>074-084-140500-
   CENTRAL IOWA
  
CITY           SKY/WX    TMP DP  RH WIND       PRES   REMARKS
AMES           CLOUDY    19  14  81 CALM      30.14F                  
ANKENY *       CLOUDY    28  23  80 S5        30.17F WCI  23          
BOONE *        CLOUDY    21  19  93 S8        30.12F WCI  12          
CHARITON *     CLEAR     36  25  64 S15       30.18S WCI  26          
DES MOINES     CLOUDY    31  23  72 S9        30.16F WCI  23          
GRINNELL*      CLOUDY    26  21  82 S9        30.18F WCI  17          
KNOXVILLE *    CLOUDY    34  23  64 S9        30.17F WCI  26          
MARSHALLTOWN   CLOUDY    25  20  81 S10       30.14F WCI  15          
NEWTON *       CLOUDY    25  21  86 S8        30.17F WCI  16          
PELLA *        CLOUDY    31  23  72 S8        30.19F WCI  23          
PERRY *        FAIR      21  20  94 SE8       30.14F WCI  12          
$$
 
IAZ004>006-015-016-023>025-035-036-140500-
   NORTH CENTRAL IOWA
  
CITY           SKY/WX    TMP DP  RH WIND       PRES   REMARKS
ALGONA *       CLOUDY    21 N/A N/A S12       30.08S WCI   9          
CLARION *      CLOUDY    23  23 100 S12       30.11F WCI  12          
ESTHERVILLE    CLOUDY    17  15  92 SW12      30.04F WCI   4          
FORT DODGE *   CLOUDY    29  23  78 S13       30.10F WCI  19          
MASON CITY     CLOUDY    14  11  87 S10       30.11F FOG     WCI   1  
FOREST CITY *  FAIR      23  21  93 S6        30.09F WCI  16          
WEBSTER CITY * CLOUDY    25  19  80 S14       30.09F WCI  13          
IOWA FALLS *   FAIR      19  16  88 S12       30.13F WCI   7          
$$

IAZ007>011-017>019-026>030-037>042-050>054-066-140500-
   NORTHEAST IOWA
  
CITY           SKY/WX    TMP DP  RH WIND       PRES   REMARKS
CEDAR RAPIDS   FAIR      28  21  75 S8        30.19F WCI  20          
CHARLES CITY * FAIR      21  21 100 S8        30.13F WCI  12          
CLINTON *      FAIR      21  17  84 S6        30.24F WCI  13          
DECORAH *      FAIR      25  19  80 S10G18    30.12F WCI  15          
DUBUQUE        FAIR      19  14  81 S9        30.19F WCI   8          
MONTICELLO *   FAIR      23  19  86 CALM      30.20F                  
OELWEIN *      FAIR      19  19 100 S8        30.17S WCI   9          
WATERLOO       FAIR      23  18  81 S7        30.16F WCI  15          
$$
 
IAZ064-065-067-068-078-140500-
   EAST CENTRAL IOWA
  
CITY           SKY/WX    TMP DP  RH WIND       PRES   REMARKS
DAVENPORT      FAIR      28  21  75 S9        30.25F WCI  19          
IOWA CITY      FAIR      20  16  84 CALM      30.23F FOG              
MT. PLEASANT * CLOUDY    30  25  80 S9        30.24F WCI  22          
MUSCATINE *    FAIR      18  16  93 CALM      30.25F FOG              
QUAD CITIES    FAIR      30  23  75 S7        30.23F WCI  23          
$$
 
IAZ062-063-075>077-085>089-095>099-140500-
   SOUTHEAST IOWA
  
CITY           SKY/WX    TMP DP  RH WIND       PRES   REMARKS
BURLINGTON     CLOUDY    30  23  75 S7        30.24F WCI  23          
FAIRFIELD *    CLOUDY    32  25  74 S9        30.22F WCI  24          
FORT MADISON * CLOUDY    30  27  86 S7        30.25F WCI  23          
KEOKUK *       CLEAR     34  27  75 S7        30.24F WCI  28          
OSKALOOSA *    FAIR      25  21  85 S12       30.20F WCI  14          
OTTUMWA        CLOUDY    30  21  69 S9        30.20F WCI  22          
WASHINGTON *   CLOUDY    28  25  86 S12       30.23F WCI  18          
$$

ABBREVIATIONS USED IN REMARKS
   TC - TEMPERATURES IN CELSIUS
  WCI - WIND CHILL INDEX
   HX - HEAT INDEX
  VSB - VISIBILITY  
$$

  

250 
ASUS43 KDMX 140401
RWRIA 

WEATHER ROUNDUP FOR IOWA
NATIONAL WEATHER SERVICE DES MOINES IA
1000 PM CST TUE FEB 13 2018

NOTE: "FAIR" INDICATES FEW OR NO CLOUDS BELOW 12,000 FEET WITH NO
SIGNIFICANT WEATHER AND/OR OBSTRUCTIONS TO VISIBILITY.

* - THESE STATIONS ARE NOT NWS STATIONS...THUS NOT UNDER NWS
QUALITY CONTROL.  THEY ALSO DO NOT REPORT WEATHER SUCH 
AS PRECIPITATION OR FOG.  

IAZ001>003-012>014-020>022-031>034-043>046-140500-
   NORTHWEST IOWA
  
CITY           SKY/WX    TMP DP  RH WIND       PRES   REMARKS
CARROLL *      CLOUDY    23  21  93 S6        30.11F WCI  16          
CHEROKEE *     CLOUDY    26  23  89 S8        30.08F WCI  17          
DENISON *      CLEAR     28  25  86 CALM      30.13S                  
LE MARS *      CLOUDY    25  21  86 S9        30.07F WCI  15          
ORANGE CITY *  CLEAR     19  18  93 SW5       30.05F FOG     WCI  13  
SHELDON *      CLOUDY    21  21 100 S7        30.04F WCI  13          
SIOUX CITY     CLOUDY    31  23  72 S9        30.10F WCI  23          
SPENCER        CLOUDY    22  19  89 SW13      30.06F WCI  10          
STORM LAKE *   CLOUDY    25  23  93 SW13      30.07F WCI  13          
$$
 
IAZ055>058-069>071-079>083-090>094-140500-
   SOUTHWEST IOWA
  
CITY           SKY/WX    TMP DP  RH WIND       PRES   REMARKS
ATLANTIC *     CLOUDY    23  23 100 CALM      30.14F                  
AUDUBON *      CLOUDY    27  21  80 CALM      30.13F                  
CLARINDA *     CLEAR     34  28  80 SW7       30.19F WCI  28          
COUNCIL BLFS * CLEAR     34  32  93 S6        30.14S WCI  29          
CRESTON *      CLEAR     34  25  69 S14       30.16F WCI  24          
HARLAN  *      PTCLDY    25  25 100 S5        30.17F WCI  19          
LAMONI         CLEAR     36  24  62 S12       30.18S WCI  28          
RED OAK *      CLOUDY    27  25  93 S6        30.16S WCI  20          
SHENANDOAH *   CLEAR     37  28  70 S9        30.16F WCI  31          
$$
 
IAZ047>049-059>061-072>074-084-140500-
   CENTRAL IOWA
  
CITY           SKY/WX    TMP DP  RH WIND       PRES   REMARKS
AMES           CLOUDY    19  14  81 CALM      30.14F                  
ANKENY *       CLOUDY    28  23  80 S5        30.17F WCI  23          
BOONE *        CLOUDY    21  19  93 S8        30.12F WCI  12          
CHARITON *     CLEAR     36  25  64 S15       30.18S WCI  26          
DES MOINES     CLOUDY    31  23  72 S9        30.16F WCI  23          
GRINNELL*      CLOUDY    26  21  82 S9        30.18F WCI  17          
KNOXVILLE *    CLOUDY    34  23  64 S9        30.17F WCI  26          
MARSHALLTOWN   CLOUDY    25  20  81 S10       30.14F WCI  15          
NEWTON *       CLOUDY    25  21  86 S8        30.17F WCI  16          
PELLA *        CLOUDY    31  23  72 S8        30.19F WCI  23          
$$
 
IAZ004>006-015-016-023>025-035-036-140500-
   NORTH CENTRAL IOWA
  
CITY           SKY/WX    TMP DP  RH WIND       PRES   REMARKS
CLARION *      CLOUDY    23  23 100 S12       30.11F WCI  12          
ESTHERVILLE    CLOUDY    17  15  92 SW12      30.04F WCI   4          
FORT DODGE *   CLOUDY    29  23  78 S13       30.10F WCI  19          
MASON CITY     CLOUDY    14  11  87 S10       30.11F FOG     WCI   1  
FOREST CITY *  FAIR      23  21  93 S6        30.09F WCI  16          
WEBSTER CITY * CLOUDY    25  19  80 S14       30.09F WCI  13          
IOWA FALLS *   FAIR      19  16  88 S12       30.13F WCI   7          
$$

IAZ007>011-017>019-026>030-037>042-050>054-066-140500-
   NORTHEAST IOWA
  
CITY           SKY/WX    TMP DP  RH WIND       PRES   REMARKS
CEDAR RAPIDS   FAIR      28  21  75 S8        30.19F WCI  20          
CHARLES CITY * FAIR      21  21 100 S8        30.13F WCI  12          
CLINTON *      FAIR      21  17  84 S6        30.24F WCI  13          
DECORAH *      FAIR      25  19  80 S10G18    30.12F WCI  15          
DUBUQUE        FAIR      19  14  81 S9        30.19F WCI   8          
MONTICELLO *   FAIR      23  19  86 CALM      30.20F                  
OELWEIN *      FAIR      19  19 100 S8        30.17S WCI   9          
WATERLOO       FAIR      23  18  81 S7        30.16F WCI  15          
$$
 
IAZ064-065-067-068-078-140500-
   EAST CENTRAL IOWA
  
CITY           SKY/WX    TMP DP  RH WIND       PRES   REMARKS
DAVENPORT      FAIR      28  21  75 S9        30.25F WCI  19          
IOWA CITY      FAIR      20  16  84 CALM      30.23F FOG              
MT. PLEASANT * CLOUDY    30  25  80 S9        30.24F WCI  22          
MUSCATINE *    FAIR      18  16  93 CALM      30.25F FOG              
QUAD CITIES    FAIR      30  23  75 S7        30.23F WCI  23          
$$
 
IAZ062-063-075>077-085>089-095>099-140500-
   SOUTHEAST IOWA
  
CITY           SKY/WX    TMP DP  RH WIND       PRES   REMARKS
BURLINGTON     CLOUDY    30  23  75 S7        30.24F WCI  23          
FAIRFIELD *    CLOUDY    32  25  74 S9        30.22F WCI  24          
FORT MADISON * CLOUDY    30  27  86 S7        30.25F WCI  23          
KEOKUK *       CLEAR     34  27  75 S7        30.24F WCI  28          
OSKALOOSA *    FAIR      25  21  85 S12       30.20F WCI  14          
OTTUMWA        CLOUDY    30  21  69 S9        30.20F WCI  22          
WASHINGTON *   CLOUDY    28  25  86 S12       30.23F WCI  18          
$$

ABBREVIATIONS USED IN REMARKS
   TC - TEMPERATURES IN CELSIUS
  WCI - WIND CHILL INDEX
   HX - HEAT INDEX
  VSB - VISIBILITY  
$$